Hourly Weather Basinow

Today, 19 June, Saturday

Time Temperature Precipitation Wind Pressure Humidity
00:00 +19°C° 0 mm 3 mps 756 mmHg 82%
01:00 +19°C° 0 mm 3 mps 756 mmHg 85%
02:00 +18°C° 0 mm 2 mps 756 mmHg 85%
03:00 +18°C° 0 mm 2 mps 756 mmHg 86%
04:00 +18°C° 0 mm 2 mps 756 mmHg 87%
05:00 +20°C° 0 mm 3 mps 756 mmHg 80%
06:00 +22°C° 0 mm 3 mps 756 mmHg 74%
07:00 +24°C° 0 mm 3 mps 756 mmHg 68%
08:00 +26°C° 0 mm 4 mps 756 mmHg 65%
09:00 +27°C° 0 mm 4 mps 756 mmHg 62%
10:00 +29°C° 0 mm 4 mps 755 mmHg 58%
11:00 +29°C° 0 mm 4 mps 755 mmHg 56%
12:00 +30°C° 0 mm 4 mps 755 mmHg 54%
13:00 +30°C° 0 mm 4 mps 755 mmHg 52%
14:00 +30°C° 0 mm 4 mps 754 mmHg 56%
15:00 +29°C° 0 mm 3 mps 754 mmHg 60%
16:00 +28°C° 0 mm 3 mps 754 mmHg 65%
17:00 +27°C° 0 mm 3 mps 754 mmHg 68%
18:00 +26°C° 0 mm 3 mps 754 mmHg 72%
19:00 +25°C° 0 mm 3 mps 754 mmHg 76%
20:00 +25°C° 0 mm 3 mps 754 mmHg 76%
21:00 +24°C° 0 mm 3 mps 754 mmHg 77%
22:00 +24°C° 0 mm 3 mps 754 mmHg 77%
23:00 +21°C° 0 mm 3 mps 754 mmHg 81%

Tomorrow, 20 June, Sunday

Time Temperature Precipitation Wind Pressure Humidity
00:00 +20°C° 0 mm 3 mps 754 mmHg 85%
01:00 +19°C° 0 mm 3 mps 754 mmHg 89%
02:00 +19°C° 0 mm 3 mps 754 mmHg 90%
03:00 +19°C° 0 mm 3 mps 754 mmHg 92%
04:00 +18°C° 0 mm 3 mps 754 mmHg 94%
05:00 +20°C° 0 mm 3 mps 754 mmHg 87%
06:00 +22°C° 0 mm 3 mps 754 mmHg 80%
07:00 +23°C° 0 mm 4 mps 754 mmHg 73%
08:00 +25°C° 0 mm 4 mps 754 mmHg 67%
09:00 +27°C° 0 mm 4 mps 754 mmHg 62%
10:00 +28°C° 0 mm 4 mps 753 mmHg 56%
11:00 +29°C° 0 mm 4 mps 753 mmHg 54%
12:00 +29°C° 0 mm 4 mps 753 mmHg 52%
13:00 +30°C° 0 mm 4 mps 752 mmHg 49%
14:00 +30°C° 0 mm 4 mps 752 mmHg 52%
15:00 +29°C° 0 mm 4 mps 751 mmHg 54%
16:00 +29°C° 0 mm 5 mps 751 mmHg 57%
17:00 +28°C° 0.3 mm 4 mps 751 mmHg 64%
18:00 +27°C° 0.3 mm 3 mps 751 mmHg 72%
19:00 +25°C° 0.3 mm 2 mps 751 mmHg 79%
20:00 +24°C° 0 mm 3 mps 751 mmHg 83%
21:00 +22°C° 0 mm 3 mps 751 mmHg 87%
22:00 +21°C° 0 mm 3 mps 751 mmHg 91%
23:00 +21°C° 0 mm 3 mps 750 mmHg 91%

Day after tomorrow, 21 June, Monday

Time Temperature Precipitation Wind Pressure Humidity
00:00 +20°C° 0 mm 3 mps 750 mmHg 92%
01:00 +20°C° 0 mm 3 mps 750 mmHg 92%
02:00 +20°C° 0 mm 3 mps 750 mmHg 93%
03:00 +20°C° 0 mm 3 mps 750 mmHg 93%
04:00 +19°C° 0 mm 3 mps 750 mmHg 93%
05:00 +21°C° 0 mm 4 mps 750 mmHg 87%
06:00 +22°C° 0 mm 5 mps 749 mmHg 81%
07:00 +23°C° 0 mm 6 mps 749 mmHg 75%
08:00 +25°C° 0 mm 5 mps 749 mmHg 70%
09:00 +27°C° 0 mm 5 mps 749 mmHg 65%
10:00 +28°C° 0 mm 5 mps 749 mmHg 60%
11:00 +28°C° 0 mm 5 mps 749 mmHg 59%
12:00 +28°C° 0 mm 5 mps 749 mmHg 59%
13:00 +28°C° 0 mm 4 mps 749 mmHg 58%
14:00 +29°C° 0 mm 4 mps 748 mmHg 59%
15:00 +29°C° 0 mm 4 mps 748 mmHg 59%
16:00 +29°C° 0 mm 4 mps 748 mmHg 59%
17:00 +28°C° 0.1 mm 4 mps 748 mmHg 65%
18:00 +27°C° 0.1 mm 3 mps 748 mmHg 71%
19:00 +26°C° 0.1 mm 3 mps 748 mmHg 77%
20:00 +24°C° 0 mm 3 mps 748 mmHg 80%
21:00 +22°C° 0 mm 3 mps 748 mmHg 83%
22:00 +21°C° 0 mm 3 mps 748 mmHg 87%
23:00 +21°C° 0 mm 3 mps 748 mmHg 88%

22 June, Tuesday

Time Temperature Precipitation Wind Pressure Humidity
00:00 +20°C° 0 mm 2 mps 748 mmHg 90%
01:00 +20°C° 0 mm 2 mps 748 mmHg 92%
02:00 +20°C° 0 mm 2 mps 748 mmHg 93%
03:00 +20°C° 0 mm 2 mps 749 mmHg 94%
04:00 +20°C° 0 mm 2 mps 749 mmHg 95%
05:00 +21°C° 0 mm 2 mps 749 mmHg 89%
06:00 +24°C° 0 mm 2 mps 749 mmHg 83%
07:00 +25°C° 0 mm 3 mps 749 mmHg 77%
08:00 +27°C° 0.2 mm 3 mps 750 mmHg 71%
09:00 +28°C° 0.2 mm 2 mps 750 mmHg 66%
10:00 +29°C° 0.2 mm 2 mps 750 mmHg 60%
11:00 +29°C° 0.2 mm 2 mps 750 mmHg 57%
12:00 +30°C° 0.2 mm 2 mps 750 mmHg 54%
13:00 +31°C° 0.2 mm 2 mps 750 mmHg 51%
14:00 +30°C° 0.1 mm 2 mps 750 mmHg 53%
15:00 +30°C° 0.1 mm 2 mps 750 mmHg 55%
16:00 +30°C° 0.1 mm 2 mps 750 mmHg 57%
17:00 +29°C° 0.1 mm 2 mps 750 mmHg 62%
18:00 +27°C° 0.1 mm 1 mps 751 mmHg 67%
19:00 +26°C° 0.1 mm 1 mps 751 mmHg 73%
20:00 +26°C° 0 mm 1 mps 751 mmHg 73%
21:00 +25°C° 0 mm 1 mps 751 mmHg 73%
22:00 +25°C° 0 mm 1 mps 751 mmHg 73%
23:00 +24°C° 0 mm 1 mps 751 mmHg 76%

23 June, Wednesday

Time Temperature Precipitation Wind Pressure Humidity
00:00 +23°C° 0 mm 2 mps 751 mmHg 79%
01:00 +23°C° 0 mm 2 mps 751 mmHg 82%
02:00 +21°C° 0 mm 2 mps 751 mmHg 84%
03:00 +21°C° 0 mm 2 mps 752 mmHg 87%
04:00 +20°C° 0 mm 2 mps 752 mmHg 89%
05:00 +23°C° 0 mm 2 mps 752 mmHg 83%
06:00 +25°C° 0 mm 2 mps 752 mmHg 77%
07:00 +26°C° 0 mm 2 mps 753 mmHg 71%
08:00 +28°C° 0 mm 2 mps 752 mmHg 66%
09:00 +29°C° 0 mm 3 mps 752 mmHg 61%
10:00 +30°C° 0 mm 3 mps 752 mmHg 56%
11:00 +31°C° 0.1 mm 3 mps 752 mmHg 55%
12:00 +31°C° 0.1 mm 3 mps 752 mmHg 53%
13:00 +31°C° 0.1 mm 3 mps 752 mmHg 52%
14:00 +31°C° 0 mm 3 mps 752 mmHg 54%
15:00 +31°C° 0 mm 3 mps 752 mmHg 57%
16:00 +30°C° 0 mm 3 mps 752 mmHg 59%
17:00 +29°C° 0 mm 3 mps 752 mmHg 64%
18:00 +28°C° 0 mm 3 mps 752 mmHg 69%
19:00 +27°C° 0 mm 3 mps 752 mmHg 74%
20:00 +26°C° 0 mm 3 mps 752 mmHg 76%
21:00 +25°C° 0 mm 3 mps 752 mmHg 78%
22:00 +24°C° 0 mm 3 mps 752 mmHg 80%
23:00 +24°C° 0 mm 3 mps 752 mmHg 82%

24 June, Thursday

Time Temperature Precipitation Wind Pressure Humidity
00:00 +22°C° 0 mm 3 mps 752 mmHg 84%
01:00 +22°C° 0 mm 3 mps 752 mmHg 85%
02:00 +22°C° 0 mm 3 mps 752 mmHg 86%
03:00 +22°C° 0 mm 3 mps 752 mmHg 87%
04:00 +21°C° 0 mm 3 mps 751 mmHg 87%
05:00 +24°C° 0 mm 3 mps 752 mmHg 82%
06:00 +26°C° 0 mm 4 mps 752 mmHg 76%
07:00 +27°C° 0 mm 4 mps 752 mmHg 70%
08:00 +28°C° 0.1 mm 4 mps 752 mmHg 69%
09:00 +28°C° 0.1 mm 4 mps 753 mmHg 68%
10:00 +28°C° 0.1 mm 4 mps 753 mmHg 67%
11:00 +28°C° 0.5 mm 4 mps 753 mmHg 66%
12:00 +28°C° 0.5 mm 5 mps 753 mmHg 65%
13:00 +27°C° 0.5 mm 5 mps 754 mmHg 65%
14:00 +27°C° 0 mm 5 mps 754 mmHg 62%
15:00 +27°C° 0 mm 5 mps 754 mmHg 60%
16:00 +27°C° 0 mm 5 mps 754 mmHg 58%
17:00 +26°C° 0 mm 4 mps 754 mmHg 62%
18:00 +25°C° 0 mm 4 mps 754 mmHg 67%
19:00 +24°C° 0 mm 3 mps 754 mmHg 72%
20:00 +22°C° 0 mm 3 mps 754 mmHg 75%
21:00 +21°C° 0 mm 3 mps 755 mmHg 79%
22:00 +19°C° 0 mm 2 mps 755 mmHg 83%
23:00 +19°C° 0 mm 2 mps 755 mmHg 85%
Show more